Tracking 35274 objects as of 12-Sep-2026
HD Live streaming from Space Station
objects crossing your sky now

NOAA 17 DEB

Track NOAA 17 DEB now!
10-day predictions


NORAD ID: 48725
Int'l Code: 2002-032BK
Launch date: June 24, 2002
Source: United States (US)
Launch site: AIR FORCE WESTERN TEST RANGE (AFWTR)

Note: This is SATELLITE DEBRIS
Your satellite tracking list
Your tracking list is empty




NASA's NSSDC Master Catalog

Two Line Element Set (TLE):
1 48725U 02032BJ  26254.32490755  .00009222  00000-0  21584-2 0  9994
2 48725  98.7012 209.6238 0051652  69.0703 291.6009 14.54003628285318
Source of the keplerian elements: AFSPC